Weather History for New York JFK, NY

Change the Weather History Date:

Wednesday, February 27, 2013

  Actual Average Record
Temperature  
Mean Temperature 44 °F 37 °F  
Max Temperature 49 °F 44 °F 71 °F (1997)
Min Temperature 38 °F 30 °F 9 °F (1950)
Degree Days  
Heating Degree Days 21 28  
Month to date heating degree days 841 814  
Since 1 July heating degree days 3311 3484  
Cooling Degree Days 0 0  
Month to date cooling degree days 0 0  
Year to date cooling degree days 0 0  
Moisture  
Dew Point 42 °F    
Average Humidity 79    
Maximum Humidity 93    
Minimum Humidity 65    
Precipitation  
Precipitation 0.60 in 0.10 in 0.66 in (1971)
Month to date precipitation 2.73 2.48  
Year to date precipitation 5.12 5.64  
Snow  
Snow 0.00 in 0.20 in 0.40 in (1991)
Month to date snowfall 7.4 8.1  
Since 1 July snowfall 13.2 19.3  
Snow Depth 0.00 in    
Sea Level Pressure  
Sea Level Pressure 29.61 in    
Wind  
Wind Speed 18 mph (East)    
Max Wind Speed 39 mph    
Max Gust Speed 53 mph    
Visibility 6 miles    
Events Rain    
T = Trace of Precipitation, MM = Missing Value Source: NWS Daily Summary

Daily Weather History Graph

Daily Weather History Graph

Search for Another Location

Airport:

Trip Planner

Search our weather history database for the weather conditions in past years. The results will help you decide how hot, cold, wet, or windy it might be!

Date:

Astronomy

Feb. 27, 2013 Rise Set
Actual Time 6:31 AM EST 5:44 PM EST
Civil Twilight 6:04 AM EST 6:11 PM EST
Nautical Twilight 5:32 AM EST 6:43 PM EST
Astronomical Twilight 5:00 AM EST 7:15 PM EST
Moon 8:03 PM EST (2/27) 7:04 AM EST (2/27)
Length of Visible Light 12h 07m
Length of Day
11h 12m
Waning Gibbous, 96% of the Moon is Illuminated
Feb 27
Waning Gibbous
Mar 4
Last Quarter
Mar 11
New
Mar 19
First Quarter
Mar 27
Full

Hourly Weather History & Observations

Time (EST) Temp. Windchill Dew Point Humidity Pressure Visibility Wind Dir Wind Speed Gust Speed Precip Events Conditions
12:51 AM 39.0 °F 29.3 °F 36.0 °F 89% 29.88 in 6.0 mi NE 19.6 mph 32.2 mph 0.14 in Rain Heavy Rain
1:51 AM 39.9 °F 30.5 °F 37.0 °F 89% 29.84 in 6.0 mi ENE 19.6 mph - 0.10 in Rain Light Rain
2:51 AM 41.0 °F 30.9 °F 39.0 °F 93% 29.77 in 6.0 mi ENE 24.2 mph 34.5 mph 0.06 in Rain Light Rain
3:51 AM 45.0 °F 36.4 °F 42.1 °F 90% 29.72 in 6.0 mi ENE 23.0 mph 34.5 mph 0.02 in Rain Light Rain
4:51 AM 42.1 °F 33.1 °F 39.9 °F 92% 29.68 in 6.0 mi NE 20.7 mph 28.8 mph 0.07 in Rain Light Rain
5:51 AM 46.0 °F 37.2 °F 44.1 °F 93% 29.64 in 4.0 mi ENE 26.5 mph 36.8 mph 0.13 in Rain Rain
6:51 AM 46.9 °F - 44.1 °F 90% 29.60 in 5.0 mi East 29.9 mph 46.0 mph 0.02 in Rain Light Rain
7:21 AM 48.2 °F - 44.6 °F 87% 29.59 in 6.0 mi East 34.5 mph 48.3 mph 0.00 in Rain Light Rain
7:51 AM 48.0 °F - 44.1 °F 86% 29.58 in 4.0 mi East 28.8 mph 48.3 mph 0.01 in Rain Light Rain
8:09 AM 46.4 °F 37.0 °F 44.6 °F 93% 29.58 in 2.5 mi East 31.1 mph 44.9 mph 0.01 in Rain Light Rain
8:20 AM 46.4 °F 37.5 °F 44.6 °F 93% 29.57 in 7.0 mi East 27.6 mph 46.0 mph 0.02 in Rain Light Rain
8:51 AM 46.9 °F - 44.1 °F 90% 29.56 in 4.0 mi ENE 25.3 mph 40.3 mph 0.02 in Rain Light Rain
9:34 AM 46.4 °F 37.4 °F 44.6 °F 93% 29.55 in 3.0 mi East 28.8 mph 38.0 mph 0.02 in Rain Light Rain
9:51 AM 46.9 °F - 44.1 °F 90% 29.55 in 6.0 mi East 28.8 mph 34.5 mph 0.02 in Rain Light Rain
10:36 AM 46.4 °F 37.9 °F 44.6 °F 93% 29.53 in 2.0 mi East 25.3 mph 35.7 mph 0.00 in Rain Light Rain
10:51 AM 46.9 °F - 44.1 °F 90% 29.53 in 2.0 mi ENE 28.8 mph 33.4 mph 0.00 in Rain Light Rain
11:45 AM 48.2 °F - 46.4 °F 93% 29.51 in 4.0 mi East 20.7 mph 26.5 mph 0.01 in   Mostly Cloudy
11:51 AM 48.0 °F - 46.0 °F 93% 29.51 in 4.0 mi ENE 15.0 mph 26.5 mph 0.01 in   Mostly Cloudy
12:05 PM 48.2 °F - 46.4 °F 93% 29.51 in 2.0 mi East 15.0 mph 23.0 mph N/A   Overcast
12:18 PM 46.4 °F 39.8 °F 46.4 °F 100% 29.51 in 0.2 mi ESE 16.1 mph - N/A   Overcast
12:51 PM 48.0 °F - 46.9 °F 96% 29.50 in 0.2 mi ESE 10.4 mph - N/A   Overcast
1:51 PM 46.9 °F - 46.9 °F 100% 29.52 in 0.1 mi South 6.9 mph - 0.00 in   Light Drizzle
2:44 PM 46.4 °F 42.4 °F 44.6 °F 93% 29.53 in 1.0 mi SSW 8.1 mph - 0.00 in   Overcast
2:51 PM 46.9 °F - 45.0 °F 93% 29.53 in 1.0 mi SSW 9.2 mph - 0.00 in   Overcast
3:00 PM 46.4 °F 42.9 °F 44.6 °F 93% 29.53 in 1.0 mi SSW 6.9 mph - N/A   Mostly Cloudy
3:23 PM 48.2 °F - 44.6 °F 87% 29.54 in 7.0 mi WSW 8.1 mph - N/A   Mostly Cloudy
3:51 PM 48.9 °F - 44.1 °F 83% 29.55 in 9.0 mi West 11.5 mph - N/A   Mostly Cloudy
4:34 PM 48.2 °F - 42.8 °F 82% 29.57 in 10.0 mi West 13.8 mph - N/A   Mostly Cloudy
4:51 PM 48.9 °F - 42.1 °F 77% 29.57 in 10.0 mi West 19.6 mph 26.5 mph N/A   Mostly Cloudy
5:51 PM 46.9 °F - 36.0 °F 66% 29.61 in 10.0 mi West 17.3 mph - N/A   Mostly Cloudy
6:51 PM 45.0 °F 38.5 °F 36.0 °F 71% 29.64 in 10.0 mi West 13.8 mph - N/A   Partly Cloudy
7:51 PM 45.0 °F 38.5 °F 35.1 °F 68% 29.65 in 10.0 mi West 13.8 mph 24.2 mph N/A   Mostly Cloudy
8:51 PM 45.0 °F 38.2 °F 35.1 °F 68% 29.67 in 10.0 mi West 15.0 mph 21.9 mph N/A   Partly Cloudy
9:51 PM 45.0 °F 39.3 °F 34.0 °F 65% 29.65 in 10.0 mi WNW 11.5 mph - N/A   Mostly Cloudy
10:51 PM 42.1 °F 39.2 °F 35.1 °F 76% 29.65 in 10.0 mi West 4.6 mph - N/A   Mostly Cloudy
11:51 PM 42.1 °F 37.1 °F 36.0 °F 79% 29.64 in 9.0 mi WSW 8.1 mph - N/A   Mostly Cloudy